Wind_Speed
2 5 1 6 2 4 6 5 6 10 9 13 20 10 12 12 7 6 5 1 7 19 12 14 11 12 16 20 22 23 24 23 21 25 23 36 35 27 23 20 20 18 18
4 5 5 10 10 5 6 2 5 10 8 17 13 11 8 11 6 11 7 8 15 14 13 13 14 12 11 13 18 20 23 25 26 24 25 25 39 32 28 23 21 21 19
4 2 2 7 4 2 8 8 8 8 9 11 10 11 12 9 7 5 4 8 10 12 14 13 12 11 11 10 12 16 18 22 25 25 27 22 36 42 32 28 24 22 21
2 4 11 3 0 2 4 7 10 14 13 15 14 12 9 8 4 9 4 12 10 15 15 13 14 15 12 12 12 14 14 19 23 24 29 29 27 41 38 33 29 25 23
5 5 9 10 4 4 7 3 9 10 17 8 15 14 5 3 5 4 8 11 11 12 14 15 15 16 9 11 10 7 8 11 15 19 24 30 32 40 43 37 35 31 26
1 4 10 8 4 7 0 9 7 10 7 12 14 11 12 6 4 2 3 10 11 9 12 16 15 12 7 10 10 7 9 12 12 13 15 21 31 36 45 38 38 36 31
6 6 4 7 6 5 6 8 6 7 11 9 12 12 4 15 5 3 4 8 8 9 10 12 16 18 10 8 9 11 11 12 12 11 10 13 24 33 46 40 40 41 38
7 7 6 4 5 4 8 7 9 6 6 5 9 8 11 9 12 8 9 4 8 6 13 13 12 13 7 7 9 13 11 12 12 10 8 10 19 27 45 40 40 38 37
6 9 4 4 5 6 9 7 4 7 12 9 9 9 5 7 11 11 11 9 10 6 11 13 10 14 8 4 6 13 13 16 13 11 8 9 16 21 34 43 40 40 37
7 6 9 5 6 10 12 15 6 12 9 11 12 10 13 14 6 6 9 10 9 11 7 10 7 11 9 8 8 11 16 18 15 11 10 10 17 21 27 37 40 43 42
10 9 8 8 6 9 12 9 13 11 14 7 9 8 7 13 9 6 8 11 6 6 10 14 12 4 8 10 12 17 21 18 14 11 10 12 14 19 25 32 38 43 46
14 15 8 12 12 11 9 10 11 12 12 12 8 8 11 15 18 14 10 11 11 12 13 15 14 4 8 12 15 17 16 13 10 9 8 11 12 13 20 27 35 42 46
15 17 10 10 11 10 11 9 13 13 12 12 10 11 7 12 14 16 15 13 12 10 12 14 12 6 9 8 12 14 12 11 8 7 7 7 10 12 14 24 33 38 43
10 9 7 12 16 19 15 14 14 12 10 13 13 16 10 6 12 17 11 13 12 9 14 12 10 10 8 8 17 10 10 9 6 5 6 6 5 9 14 18 30 43 38
16 10 15 18 18 18 17 16 17 14 17 16 15 14 13 9 10 16 18 9 14 9 11 14 10 9 3 13 15 10 9 6 4 4 5 6 6 5 6 16 19 49 39
14 18 18 17 17 19 17 17 18 16 15 16 16 12 16 15 17 13 13 13 15 8 10 15 9 12 7 6 10 7 9 6 4 4 5 5 4 4 4 9 17 23 27
18 20 20 20 20 20 20 20 20 21 20 19 20 21 22 20 18 16 12 12 12 13 14 14 12 13 6 10 9 4 10 9 6 5 5 4 3 3 2 4 12 18 27
16 17 17 17 18 18 19 19 19 19 20 19 18 18 18 20 20 19 15 10 13 16 17 16 13 5 6 7 5 2 5 9 8 6 4 2 2 0 4 6 8 9 11
15 16 15 15 18 18 18 17 17 17 17 17 18 20 20 22 21 19 15 9 18 17 10 10 4 7 8 6 2 1 6 7 9 7 3 5 3 1 2 4 9 8 8
7 8 11 14 14 15 15 16 14 14 15 18 18 19 19 22 23 20 18 19 13 20 12 10 11 11 10 7 6 6 7 4 9 13 8 4 4 3 1 2 3 10 11
13 12 13 11 10 10 12 15 15 14 17 19 20 19 20 21 22 21 18 18 20 15 13 12 14 14 8 15 9 8 12 5 8 9 6 5 2 5 3 1 1 8 13
3 4 6 8 11 9 13 15 19 21 20 20 21 22 23 23 24 26 25 22 25 20 11 16 13 17 13 19 6 11 10 8 8 9 1 2 4 5 4 3 1 9 8
10 11 10 11 12 12 13 14 16 19 21 22 22 21 21 20 23 25 24 20 23 22 20 18 20 14 19 19 14 14 10 10 9 8 5 3 1 4 5 5 5 5 9
20 22 22 20 21 22 22 23 26 28 29 28 23 20 20 18 23 26 29 24 21 22 21 19 20 18 16 15 19 15 15 13 7 5 3 5 4 5 5 6 6 6 8
27 28 28 28 28 29 31 33 34 34 35 35 32 27 18 19 21 24 29 22 23 22 20 20 21 19 20 17 18 15 11 11 7 10 10 7 7 8 6 5 8 9 11
29 30 31 30 31 33 34 35 35 35 35 33 32 21 17 22 19 24 26 26 23 22 20 18 20 21 18 18 17 15 11 11 11 12 10 9 10 12 10 11 9 11 13
Wind_Direction
290 285 283 309 251 18 21 301 313 322 7 327 0 335 334 356 307 327 330 296 333 333 330 333 308 283 269 258 258 258 260 254 248 250 244 231 224 219 216 213 219 211 212
253 259 294 281 279 357 257 269 342 351 352 7 9 349 327 311 343 16 18 341 336 341 334 334 325 299 281 270 265 263 260 259 257 251 247 243 220 220 217 212 211 211 205
302 291 269 294 276 211 355 344 338 324 319 337 343 360 356 13 48 23 7 315 336 338 338 332 331 310 296 290 283 279 268 261 261 255 245 244 224 221 221 212 201 209 204
45 300 284 200 83 189 300 345 2 16 353 348 354 5 349 332 1 334 356 348 341 328 331 326 316 316 305 300 297 285 272 267 267 262 252 245 244 215 217 210 202 201 204
220 312 305 331 322 312 289 62 28 7 346 336 348 357 341 323 5 326 322 25 2 338 331 326 326 324 321 312 327 314 296 292 287 273 261 255 250 213 210 209 203 199 198
77 230 276 286 318 326 353 348 10 359 353 355 347 336 326 233 275 55 45 355 2 354 335 321 322 330 309 309 335 328 313 309 310 298 271 241 230 225 207 207 205 202 201
296 310 279 227 330 286 322 329 10 328 355 342 358 359 41 65 239 189 326 9 348 344 334 310 313 327 311 304 323 318 317 312 309 309 274 241 222 216 206 207 205 205 205
253 263 268 299 294 328 311 313 326 349 312 346 341 3 12 21 45 3 339 329 312 356 342 327 326 323 323 322 324 323 315 318 311 305 273 251 228 216 207 208 207 208 205
260 265 274 286 302 310 306 238 247 324 334 4 349 341 360 12 354 349 325 298 303 309 345 350 337 337 356 351 329 302 315 319 313 298 285 248 224 227 218 209 211 205 205
246 241 273 300 326 308 294 319 17 332 326 339 341 338 348 332 324 343 7 323 307 305 336 356 337 336 350 333 293 297 308 309 304 297 266 248 232 225 221 213 216 214 205
265 246 240 267 287 305 303 324 306 313 330 320 307 332 329 334 268 223 1 349 317 300 325 357 333 350 321 311 307 303 302 308 298 285 268 247 239 229 225 220 222 223 206
267 272 238 240 264 278 287 288 284 299 311 313 320 332 323 326 316 328 21 339 325 273 306 338 333 350 309 311 312 309 311 318 308 293 277 247 244 229 220 221 226 216 202
271 273 256 250 289 276 284 275 286 298 313 313 318 323 313 312 311 334 322 306 309 289 295 322 343 320 315 310 305 315 328 330 315 302 294 269 244 237 226 229 223 217 203
269 300 248 268 283 288 273 274 284 299 306 307 301 308 311 338 307 321 312 327 304 309 305 314 336 329 8 291 323 316 324 329 318 312 306 293 259 247 232 231 204 217 199
248 272 266 273 282 280 278 283 277 286 288 294 301 304 308 304 317 306 313 298 293 289 302 305 317 327 48 295 311 324 338 336 351 314 285 283 275 277 263 230 227 189 196
237 248 259 263 270 280 282 278 278 276 285 287 281 280 283 278 269 276 294 288 280 289 272 295 302 305 240 290 311 329 339 340 318 306 293 290 291 305 306 214 216 201 207
254 257 265 270 274 276 275 275 277 278 277 275 278 278 283 284 283 278 273 299 316 302 270 290 299 305 272 231 277 332 335 335 337 302 301 285 289 260 217 170 196 208 204
262 269 278 281 281 281 280 277 277 281 281 276 277 281 280 282 281 290 294 278 283 282 275 288 298 285 305 304 271 125 299 311 324 314 278 266 320 349 208 208 184 180 203
263 268 261 270 283 287 288 287 284 286 290 292 289 278 269 271 275 276 283 269 312 287 286 270 264 218 276 295 12 10 300 346 356 345 289 215 204 37 101 205 211 196 194
258 278 283 288 286 286 291 299 304 306 297 293 288 286 282 268 272 280 284 268 275 253 254 251 230 209 260 260 271 266 283 332 321 329 311 242 206 199 44 15 221 205 167
244 237 243 245 264 283 283 283 282 285 288 294 293 289 286 285 284 278 272 272 278 274 235 233 222 230 244 222 246 214 253 278 297 313 338 185 159 187 211 306 252 181 175
259 258 258 258 249 230 266 276 275 283 288 290 288 289 280 282 280 278 272 270 268 267 244 231 236 236 239 227 232 218 241 243 267 306 158 192 144 137 175 238 244 179 177
315 308 304 304 298 289 285 288 294 298 300 301 300 294 289 272 274 274 271 267 263 265 261 237 224 232 231 228 224 230 218 236 260 267 183 202 162 197 177 193 201 188 196
305 305 302 298 292 289 292 294 298 301 302 304 302 299 288 293 278 275 276 271 251 258 260 243 233 230 234 233 221 233 216 225 209 214 237 216 207 211 208 198 189 193 184
299 299 298 298 298 294 296 300 300 300 301 301 299 299 290 281 281 271 274 272 247 249 256 237 227 224 237 239 226 212 224 196 186 205 227 230 210 192 176 167 157 165 161
299 298 295 293 291 290 291 293 295 295 294 293 295 301 277 262 262 270 265 270 243 242 248 243 227 220 229 229 208 199 185 184 220 196 228 202 182 177 159 174 174 167 166
Height
1572 1573 1572 1565 1556 1559 1559 1565 1565 1564 1563 1560 1555 1558 1558 1558 1556 1557 1553 1554 1553 1551 1551 1551 1551 1552 1552 1552 1552 1553 1555 1555 1557 1558 1558 1559 1566 1570 1573 1577 1580 1585 1587
1572 1571 1571 1569 1565 1562 1565 1564 1566 1564 1561 1558 1558 1557 1556 1556 1555 1554 1552 1551 1551 1549 1549 1550 1550 1550 1549 1549 1548 1549 1550 1550 1552 1553 1554 1555 1559 1563 1568 1574 1578 1581 1584
1572 1571 1570 1564 1561 1565 1569 1567 1567 1565 1562 1558 1553 1552 1553 1553 1553 1552 1551 1550 1549 1549 1549 1549 1549 1548 1547 1547 1546 1545 1546 1547 1547 1548 1549 1550 1552 1560 1566 1569 1573 1578 1582
1569 1568 1562 1563 1562 1567 1573 1573 1571 1569 1563 1561 1554 1551 1552 1552 1552 1552 1551 1549 1549 1548 1549 1549 1548 1547 1545 1544 1543 1542 1542 1542 1542 1542 1543 1544 1547 1552 1559 1565 1569 1574 1580
1566 1567 1566 1566 1567 1569 1574 1574 1573 1566 1562 1558 1553 1553 1553 1551 1550 1550 1548 1549 1550 1550 1549 1548 1546 1545 1543 1542 1540 1539 1539 1539 1538 1536 1536 1536 1539 1543 1552 1558 1564 1569 1575
1562 1564 1569 1569 1571 1572 1574 1573 1569 1566 1561 1562 1558 1555 1553 1550 1549 1549 1546 1547 1548 1548 1549 1547 1544 1544 1542 1540 1539 1538 1537 1536 1534 1532 1530 1530 1535 1538 1546 1553 1558 1564 1571
1562 1563 1567 1567 1572 1571 1572 1571 1571 1570 1565 1565 1561 1555 1552 1550 1549 1547 1547 1548 1547 1547 1547 1547 1546 1542 1540 1539 1538 1536 1535 1533 1531 1529 1527 1527 1531 1533 1541 1548 1554 1559 1566
1563 1567 1567 1569 1569 1570 1563 1561 1566 1568 1566 1565 1563 1560 1553 1551 1549 1550 1548 1548 1548 1547 1545 1545 1544 1542 1538 1537 1537 1536 1534 1531 1528 1527 1525 1524 1527 1531 1537 1544 1549 1556 1562
1564 1566 1568 1569 1568 1566 1560 1557 1553 1562 1561 1561 1562 1559 1553 1550 1549 1550 1550 1548 1547 1545 1544 1542 1541 1541 1539 1538 1537 1535 1532 1530 1527 1525 1523 1523 1525 1529 1532 1539 1545 1551 1557
1561 1563 1565 1566 1566 1563 1558 1547 1554 1559 1560 1559 1559 1555 1552 1550 1549 1549 1549 1548 1546 1543 1543 1541 1540 1539 1538 1537 1535 1533 1531 1528 1525 1523 1522 1522 1523 1526 1530 1535 1540 1545 1552
1559 1559 1561 1561 1562 1561 1559 1558 1558 1557 1559 1559 1556 1554 1550 1548 1542 1539 1541 1548 1546 1542 1541 1540 1537 1538 1537 1535 1534 1532 1529 1525 1522 1521 1520 1520 1520 1522 1525 1527 1534 1538 1546
1555 1555 1557 1559 1559 1560 1560 1560 1559 1560 1558 1557 1554 1551 1549 1547 1541 1524 1533 1544 1546 1540 1539 1538 1536 1535 1535 1534 1531 1528 1525 1522 1519 1518 1517 1518 1518 1520 1522 1525 1528 1532 1541
1555 1553 1554 1556 1556 1557 1557 1558 1558 1557 1556 1555 1551 1549 1549 1548 1542 1538 1538 1542 1543 1541 1538 1536 1534 1534 1533 1531 1529 1526 1523 1521 1519 1517 1516 1517 1516 1518 1519 1521 1522 1525 1533
1556 1556 1554 1554 1553 1553 1553 1554 1553 1553 1552 1551 1550 1549 1549 1548 1545 1541 1541 1541 1541 1541 1537 1536 1534 1533 1532 1529 1528 1525 1522 1520 1518 1517 1515 1515 1515 1514 1516 1515 1512 1520 1524
1553 1555 1553 1552 1551 1549 1548 1548 1549 1549 1549 1549 1548 1548 1547 1547 1546 1543 1540 1539 1537 1536 1534 1532 1532 1531 1531 1529 1527 1524 1522 1519 1518 1517 1515 1514 1513 1513 1512 1511 1513 1488 1527
1551 1551 1551 1550 1548 1547 1546 1547 1547 1548 1548 1548 1547 1546 1545 1544 1542 1540 1537 1536 1534 1533 1532 1528 1528 1528 1529 1527 1525 1524 1522 1520 1519 1518 1516 1514 1512 1512 1511 1509 1510 1518 1521
1548 1548 1548 1547 1545 1544 1544 1544 1544 1544 1545 1545 1545 1543 1542 1539 1538 1537 1538 1541 1539 1536 1534 1530 1528 1525 1524 1525 1524 1523 1522 1520 1519 1518 1517 1515 1513 1512 1511 1511 1513 1517 1518
1544 1544 1544 1543 1541 1540 1540 1539 1540 1540 1540 1540 1540 1539 1538 1536 1533 1534 1538 1526 1535 1529 1530 1528 1527 1524 1523 1523 1522 1523 1523 1522 1518 1517 1517 1515 1514 1513 1511 1511 1515 1518 1517
1539 1539 1539 1538 1538 1537 1537 1536 1535 1535 1535 1535 1535 1534 1533 1532 1530 1532 1532 1532 1525 1532 1527 1524 1522 1523 1521 1522 1522 1522 1522 1521 1519 1518 1516 1514 1514 1514 1512 1512 1513 1517 1521
1535 1536 1537 1537 1536 1535 1534 1532 1531 1531 1531 1531 1530 1530 1529 1527 1527 1528 1529 1526 1523 1526 1525 1524 1522 1520 1520 1521 1521 1520 1521 1520 1519 1517 1516 1515 1514 1515 1514 1513 1513 1515 1518
1531 1531 1531 1532 1532 1533 1532 1531 1530 1528 1527 1526 1525 1524 1524 1524 1524 1524 1525 1523 1522 1522 1522 1521 1521 1517 1518 1519 1520 1520 1520 1520 1519 1518 1515 1514 1514 1514 1516 1515 1514 1515 1518
1528 1528 1528 1527 1527 1528 1527 1527 1526 1525 1522 1521 1520 1519 1519 1518 1518 1518 1518 1518 1519 1517 1517 1518 1517 1514 1515 1516 1518 1519 1518 1518 1518 1518 1516 1515 1515 1515 1515 1516 1515 1517 1519
1527 1528 1527 1526 1525 1524 1523 1523 1522 1520 1518 1516 1515 1514 1513 1512 1511 1512 1511 1511 1511 1511 1510 1512 1512 1512 1511 1514 1515 1516 1517 1516 1516 1517 1516 1515 1515 1515 1515 1516 1516 1516 1518
1524 1524 1522 1520 1519 1518 1518 1516 1515 1512 1511 1509 1508 1508 1507 1506 1504 1505 1505 1504 1504 1504 1505 1506 1507 1509 1508 1510 1512 1513 1513 1514 1515 1516 1516 1515 1514 1514 1516 1516 1516 1517 1518
1518 1518 1516 1514 1513 1510 1509 1509 1507 1504 1502 1500 1500 1501 1500 1499 1499 1499 1496 1498 1498 1498 1499 1500 1502 1503 1504 1506 1509 1509 1510 1511 1512 1514 1515 1515 1513 1513 1515 1516 1517 1517 1518
1511 1510 1508 1508 1506 1503 1502 1501 1499 1496 1493 1493 1493 1492 1492 1491 1491 1491 1492 1491 1492 1493 1492 1494 1497 1498 1500 1503 1505 1506 1508 1509 1511 1512 1513 1513 1512 1512 1514 1516 1517 1518 1519